| time (UTC) | temp F | wind direction | speed MPH | gust MPH | rain 1hr in | rain 24hr in | rain mn in | humidity % | barometer mb |
| 20260510144557 | 63 | 360 | 3.0 | 9.0 | 0.00 | 0.00 | 0.00 | 69 | 1014.8 |
| 20260510143058 | 63 | 360 | 4.0 | 10.0 | 0.00 | 0.00 | 0.00 | 71 | 1014.5 |
| 20260510141557 | 63 | 36 | 2.0 | 9.0 | 0.00 | 0.00 | 0.00 | 73 | 1014.5 |
| 20260510140057 | 62 | 42 | 2.0 | 9.0 | 0.00 | 0.00 | 0.00 | 74 | 1014.4 |
| 20260510134601 | 61 | 24 | 4.0 | 10.0 | 0.00 | 0.00 | 0.00 | 74 | 1014.1 |
| 20260510133107 | 60 | 352 | 3.0 | 12.0 | 0.00 | 0.00 | 0.00 | 76 | 1014.0 |
| 20260510131604 | 60 | 22 | 5.0 | 12.0 | 0.00 | 0.00 | 0.00 | 76 | 1013.9 |
| 20260510130105 | 60 | 349 | 4.0 | 9.0 | 0.00 | 0.00 | 0.00 | 77 | 1013.8 |
| 20260510124612 | 59 | 27 | 5.0 | 8.0 | 0.00 | 0.00 | 0.00 | 78 | 1013.4 |
| 20260510123118 | 59 | 31 | 3.0 | 8.0 | 0.00 | 0.00 | 0.00 | 80 | 1013.3 |
| 20260510121600 | 59 | 42 | 3.0 | 6.0 | 0.00 | 0.00 | 0.00 | 81 | 1012.8 |
| 20260510120103 | 59 | 32 | 2.0 | 5.0 | 0.00 | 0.00 | 0.00 | 80 | 1012.7 |
| 20260510114604 | 59 | 152 | 1.0 | 3.0 | 0.00 | 0.00 | 0.00 | 80 | 1012.5 |
| 20260510113102 | 58 | 240 | 0.0 | 4.0 | 0.00 | 0.00 | 0.00 | 80 | 1012.4 |
| 20260510111626 | 58 | 242 | 4.0 | 5.0 | 0.00 | 0.00 | 0.00 | 81 | 1012.2 |
| 20260510110057 | 57 | 263 | 2.0 | 4.0 | 0.00 | 0.00 | 0.00 | 81 | 1012.1 |
| 20260510104608 | 58 | 288 | 1.0 | 7.0 | 0.00 | 0.01 | 0.00 | 80 | 1011.7 |
| 20260510103101 | 59 | 94 | 4.0 | 6.0 | 0.00 | 0.01 | 0.00 | 77 | 1011.0 |
| 20260510101559 | 59 | 317 | 3.0 | 8.0 | 0.00 | 0.01 | 0.00 | 78 | 1011.4 |
| 20260510100100 | 58 | 323 | 6.0 | 10.0 | 0.00 | 0.01 | 0.00 | 80 | 1011.5 |
| 20260510094600 | 57 | 319 | 8.0 | 10.0 | 0.00 | 0.02 | 0.00 | 79 | 1011.4 |
| 20260510093100 | 60 | 248 | 6.0 | 8.0 | 0.00 | 0.02 | 0.00 | 75 | 1010.9 |
| 20260510091604 | 60 | 221 | 6.0 | 8.0 | 0.00 | 0.02 | 0.00 | 74 | 1010.7 |
| 20260510090119 | 60 | 213 | 6.0 | 9.0 | 0.00 | 0.02 | 0.00 | 75 | 1010.7 |
| 20260510084605 | 60 | 201 | 5.0 | 9.0 | 0.00 | 0.03 | 0.00 | 75 | 1010.6 |
| 20260510083106 | 60 | 188 | 5.0 | 8.0 | 0.00 | 0.03 | 0.00 | 76 | 1010.6 |
| 20260510081556 | 60 | 228 | 4.0 | 8.0 | 0.00 | 0.03 | 0.00 | 76 | 1010.6 |
| 20260510074557 | 61 | 234 | 4.0 | 7.0 | 0.00 | 0.05 | 0.00 | 74 | 1009.8 |
| 20260510073056 | 61 | 219 | 5.0 | 9.0 | 0.00 | 0.05 | 0.00 | 71 | 1009.8 |
| 20260510071555 | 62 | 249 | 5.0 | 8.0 | 0.00 | 0.05 | 0.00 | 71 | 1009.8 |
| 20260510070106 | 62 | 227 | 4.0 | 7.0 | 0.00 | 0.05 | 0.00 | 71 | 1009.8 |
| 20260510064611 | 62 | 254 | 4.0 | 7.0 | 0.00 | 0.05 | 0.00 | 71 | 1009.9 |
| 20260510063057 | 62 | 235 | 3.0 | 4.0 | 0.00 | 0.05 | 0.00 | 71 | 1010.1 |
| 20260510061559 | 62 | 235 | 3.0 | 6.0 | 0.00 | 0.05 | 0.00 | 70 | 1010.1 |
| 20260510060058 | 62 | 232 | 5.0 | 9.0 | 0.00 | 0.05 | 0.00 | 69 | 1010.3 |
| 20260510054605 | 63 | 218 | 5.0 | 7.0 | 0.00 | 0.05 | 0.00 | 67 | 1010.2 |
| 20260510053105 | 64 | 217 | 6.0 | 9.0 | 0.00 | 0.05 | 0.00 | 67 | 1010.3 |
| 20260510051608 | 64 | 196 | 6.0 | 8.0 | 0.00 | 0.05 | 0.00 | 66 | 1010.3 |
| 20260510050059 | 63 | 232 | 5.0 | 7.0 | 0.00 | 0.05 | 0.00 | 66 | 1010.4 |
| 20260510044614 | 64 | 218 | 5.0 | 9.0 | 0.00 | 0.05 | 0.00 | 66 | 1010.4 |
| 20260510043102 | 64 | 227 | 3.0 | 6.0 | 0.00 | 0.05 | 0.00 | 65 | 1010.4 |
| 20260510041611 | 64 | 243 | 5.0 | 8.0 | 0.00 | 0.05 | 0.00 | 65 | 1010.1 |
| 20260510034605 | 64 | 244 | 6.0 | 10.0 | 0.00 | 0.05 | 0.05 | 66 | 1010.3 |
| 20260510033057 | 65 | 223 | 7.0 | 11.0 | 0.00 | 0.05 | 0.05 | 64 | 1010.3 |
| 20260510031608 | 66 | 242 | 7.0 | 11.0 | 0.00 | 0.05 | 0.05 | 63 | 1010.3 |
| 20260510030106 | 66 | 254 | 7.0 | 10.0 | 0.00 | 0.05 | 0.05 | 64 | 1010.1 |
| 20260510024557 | 66 | 233 | 7.0 | 11.0 | 0.00 | 0.05 | 0.05 | 63 | 1010.1 |
| 20260510023056 | 67 | 250 | 7.0 | 14.0 | 0.00 | 0.05 | 0.05 | 61 | 1009.9 |
| 20260510021555 | 68 | 240 | 9.0 | 13.0 | 0.00 | 0.05 | 0.05 | 59 | 1009.7 |
| 20260510020101 | 68 | 215 | 7.0 | 13.0 | 0.00 | 0.05 | 0.05 | 59 | 1009.4 |
| 20260510014604 | 69 | 248 | 8.0 | 13.0 | 0.00 | 0.05 | 0.05 | 57 | 1009.3 |
| 20260510013103 | 69 | 229 | 7.0 | 11.0 | 0.00 | 0.05 | 0.05 | 57 | 1009.2 |
| 20260510011606 | 69 | 238 | 6.0 | 10.0 | 0.00 | 0.05 | 0.05 | 56 | 1009.0 |
| 20260510010058 | 70 | 246 | 5.0 | 10.0 | 0.00 | 0.05 | 0.05 | 55 | 1008.7 |
| 20260510004557 | 71 | 242 | 5.0 | 10.0 | 0.00 | 0.05 | 0.05 | 53 | 1008.4 |
| 20260510003103 | 72 | 236 | 6.0 | 12.0 | 0.00 | 0.05 | 0.05 | 52 | 1008.2 |
| 20260510001557 | 73 | 231 | 8.0 | 15.0 | 0.00 | 0.05 | 0.05 | 50 | 1007.7 |
| 20260510000111 | 73 | 227 | 9.0 | 15.0 | 0.00 | 0.05 | 0.05 | 50 | 1007.5 |
| 20260509234621 | 74 | 213 | 8.0 | 18.0 | 0.00 | 0.05 | 0.05 | 48 | 1007.4 |
| 20260509233100 | 74 | 217 | 7.0 | 15.0 | 0.00 | 0.05 | 0.05 | 50 | 1007.4 |
| 20260509231612 | 74 | 205 | 9.0 | 17.0 | 0.00 | 0.05 | 0.05 | 49 | 1007.4 |
| 20260509230107 | 74 | 234 | 9.0 | 17.0 | 0.00 | 0.05 | 0.05 | 50 | 1007.3 |
| 20260509224603 | 74 | 226 | 6.0 | 15.0 | 0.00 | 0.05 | 0.05 | 51 | 1007.3 |
| 20260509223057 | 74 | 186 | 7.0 | 19.0 | 0.00 | 0.05 | 0.05 | 51 | 1007.3 |
| 20260509221559 | 74 | 157 | 6.0 | 20.0 | 0.00 | 0.05 | 0.05 | 52 | 1007.4 |
| 20260509220056 | 74 | 219 | 9.0 | 15.0 | 0.00 | 0.05 | 0.05 | 50 | 1007.4 |
| 20260509214600 | 74 | 219 | 9.0 | 17.0 | 0.00 | 0.05 | 0.05 | 50 | 1007.5 |
| 20260509213055 | 74 | 239 | 6.0 | 17.0 | 0.00 | 0.05 | 0.05 | 52 | 1007.4 |
| 20260509211601 | 73 | 221 | 13.0 | 21.0 | 0.00 | 0.05 | 0.05 | 51 | 1007.3 |
| 20260509210109 | 73 | 202 | 10.0 | 21.0 | 0.00 | 0.05 | 0.05 | 53 | 1007.5 |
| 20260509204601 | 73 | 196 | 9.0 | 19.0 | 0.00 | 0.05 | 0.05 | 54 | 1007.6 |
| 20260509203056 | 72 | 196 | 11.0 | 18.0 | 0.00 | 0.05 | 0.05 | 56 | 1007.4 |
| 20260509201602 | 72 | 200 | 12.0 | 20.0 | 0.00 | 0.05 | 0.05 | 57 | 1007.5 |
| 20260509200104 | 72 | 183 | 10.0 | 16.0 | 0.00 | 0.05 | 0.05 | 56 | 1007.7 |
| 20260509194556 | 71 | 164 | 11.0 | 20.0 | 0.00 | 0.05 | 0.05 | 58 | 1008.0 |
| 20260509193100 | 71 | 197 | 10.0 | 20.0 | 0.00 | 0.05 | 0.05 | 58 | 1008.1 |
| 20260509191558 | 70 | 193 | 10.0 | 18.0 | 0.00 | 0.05 | 0.05 | 59 | 1008.0 |
| 20260509190109 | 71 | 184 | 6.0 | 15.0 | 0.00 | 0.05 | 0.05 | 59 | 1008.1 |
| 20260509184600 | 70 | 284 | 5.0 | 15.0 | 0.00 | 0.05 | 0.05 | 61 | 1008.1 |
| 20260509183059 | 69 | 217 | 11.0 | 18.0 | 0.00 | 0.05 | 0.05 | 62 | 1008.2 |
| 20260509181556 | 69 | 197 | 9.0 | 17.0 | 0.00 | 0.05 | 0.05 | 63 | 1008.2 |
| 20260509180104 | 68 | 244 | 6.0 | 17.0 | 0.00 | 0.05 | 0.05 | 60 | 1008.3 |
| 20260509174600 | 68 | 288 | 9.0 | 14.0 | 0.00 | 0.05 | 0.05 | 62 | 1008.5 |
| 20260509173102 | 68 | 251 | 7.0 | 17.0 | 0.00 | 0.05 | 0.05 | 63 | 1008.4 |
| 20260509171559 | 67 | 240 | 6.0 | 21.0 | 0.00 | 0.05 | 0.05 | 63 | 1008.5 |
| 20260509170107 | 66 | 236 | 9.0 | 20.0 | 0.00 | 0.05 | 0.05 | 66 | 1008.5 |
| 20260509164557 | 66 | 184 | 7.0 | 12.0 | 0.00 | 0.05 | 0.05 | 66 | 1008.5 |
| 20260509163104 | 65 | 255 | 6.0 | 15.0 | 0.00 | 0.05 | 0.05 | 67 | 1008.5 |
| 20260509161559 | 65 | 210 | 8.0 | 17.0 | 0.00 | 0.05 | 0.05 | 69 | 1008.5 |
| 20260509160058 | 65 | 180 | 4.0 | 14.0 | 0.00 | 0.05 | 0.05 | 69 | 1008.6 |
| 20260509154608 | 64 | 172 | 6.0 | 11.0 | 0.00 | 0.05 | 0.05 | 73 | 1008.4 |
| 20260509153100 | 63 | 211 | 5.0 | 11.0 | 0.00 | 0.05 | 0.05 | 75 | 1008.3 |
| 20260509151608 | 62 | 238 | 7.0 | 11.0 | 0.00 | 0.05 | 0.05 | 77 | 1008.3 |
| 20260509150110 | 61 | 185 | 5.0 | 11.0 | 0.00 | 0.05 | 0.05 | 83 | 1008.2 |